TITAN 3C TRANSTAGE DEB, 1716

Orbit data source: Space-Track

TITAN 3C TRANSTAGE DEB, 1716 is space debris in LEO originally from a launch on Fri, 15 Oct 1965 UTC launched from the Air Force Eastern Test Range (AFETR). Debris objects in space refer to the collection of defunct objects orbiting the Earth. Examples of debris include non-operational satellites, rocket bodies, and fragments generated from explosions, collisions, or faulty payload assembly.

Loading next visibility...
Identifier
1716, 1965-082BX
Orbit
LEO
Last TLE update
18 hours ago
Origin
Manufacturer
Unknown
Mission
Spacecraft
Bus & Motor
Unknown
Mass
Unknown
Launch date (UTC)
1965-10-15 (60 years ago)
Launch vehicle
Unknown
Launch site
Air Force Eastern Test Range (AFETR)
Object type
Payload
Rocket body
Debris
Shape & HBR
Unknown
Radar Cross Section
1.900 m², Large (>1 m²)

Expand to show TLE details & history

TLE from 18 hours ago
0 TITAN 3C TRANSTAGE DEB
1 01716U 65082BX  25191.61099232  .00000332  00000-0  64008-4 0  9996
2 01716  32.1886 150.9410 0038371 146.5743 213.7333 14.57044450158636
Epoch: 2025-07-10T14:39Z
TLE epoch observation values (Epoch: 2025-07-10T14:39:49.736Z)
Latitude
-0.00001°
Longitude
2.20896°
Altitude
724.014 km
Speed
7.484 km/s
True Right ascension
10h 03m 45s
True Declination
0° 00' 00"
Sunlit
Object was in daylight at epoch
Visualization orbit readout
Latitude
11.734°
Longitude
16.92764°
Altitude
718.38 km
Speed
7.49 km/s
Apparent Right ascension
10h 15m 47s
Apparent Declination
-12° 54' 56"
Sunlit
Object is in daylight
Visualization observer readout
Local Sidereal Time
21:08:52
Azimuth
326.719° NNW
Elevation
-59.243°
Doppler factor
1
Orbital elements
Apogee altitude
733.495 km
Perigee altitude
679.128 km
Semi-major axis
7,084.448 km
Eccentricity
0.00384
Inclination
32.1886°
RAAN
150.941°
Arg. of periapsis
146.5743°
True anomaly
Unknown
Mean anomaly
213.7333°
Eccentric anomaly
Unknown
Mean motion
3.63986 °/min
Orbital period
98.91 mins
BSTAR
0.000064008
Loading maneuver chart data...
Loading SW <> Apogee altitude chart data...

TITAN 3C TRANSTAGE DEB Visibility forecast

Observer location: undefined°, undefined°

Span
Click to sort rows by Start time (UTC) header in descending order
Start Az.
Max El. time (UTC)
Max El. Az.
Max El.
End time (UTC)
End Az.
7 mins2025-07-12 01:28:15.112Z213.514° SW2025-07-12 01:31:15.112Z167.376° S23.912°2025-07-12 01:35:15.112Z111.803° ESE
7 mins2025-07-12 03:12:15.112Z236.981° WSW2025-07-12 03:15:15.112Z188.005° SSW28.813°2025-07-12 03:19:15.112Z121.811° SE
6 mins2025-07-12 04:57:15.112Z234.745° WSW2025-07-12 04:59:15.112Z204.147° SW21.529°2025-07-12 05:03:15.112Z146.126° SSE
|